SCP
0 0 0 0 0 0 0 0 0 0 0 0 0 0 0 0 0 0 0 0 0 0
0 0 0 0 0 0 0 0 0 0 0 0 0 0 0 0 0 0 0 0 0 0
0 0 0 0 0 0 0 0 0 0 0 0 0 0 0 0 0 0 0 0 0 0
0 0 0 0 0 0 0 0 0 0 0 0 0 0 0 0 0 0 0 0 0 0
0 0 0 0 0 0 0 0 0 0 0 0 0 0 0 0 0 0 0 0 0 0
0 0 0 0 0 0 0 0 0 0 0 0 0 0 0 0 0 0 0 0 0 0
0 0 0 0 0 0 0 0 0 0 0 0 0 0 0 0 0 0 0 0 0 0
0 0 0 0 0 0 0 0 0 0 0 0 0 0 0 0 0 0 0 0 0 0
0 0 0 0 0 0 0 0 0 0 0 0 0 0 0 0 0 0 0 0 0 0
0 0 0 0 0 0 0 0 0 0 0 0 0 0 0 0 0 0 0 0 0 0
0 0 0 0 0 0 0 0 0 0 0 0 0 0 0 0 0 0 0 0 0 0
0 0 0 0 0 0 0 0 0 0 0 0 0 0 0 0 0 0 0 0 0 0
0 0 0 0 0 0 0 0 0 0 0 0 0 0 0 0 0 0 0 0 0 0
0 0 0 0 0 0 0 0 0 0 0 0 0 0 -0 0 0 0 0 0 0 0
Wind_Speed_500mb
56 48 43 40 39 38 40 41 42 47 57 66 72 75 74 78 81 81 80 82 80 83
55 49 43 40 40 39 42 44 46 53 63 70 75 76 77 81 83 79 79 84 82 80
57 49 42 39 39 41 42 47 52 60 70 74 77 77 77 81 81 78 77 78 80 85
55 47 41 41 40 41 43 48 55 66 73 77 79 78 80 81 82 83 85 81 79 89
52 44 41 40 39 41 44 51 61 69 76 80 81 80 81 83 83 82 84 84 78 87
49 43 40 38 37 41 47 55 65 74 78 80 79 80 80 82 85 83 81 77 82 88
47 40 35 35 38 42 51 59 67 73 77 76 78 80 83 84 83 82 78 80 86 91
42 35 33 33 38 45 53 60 65 70 72 74 78 82 84 83 79 82 90 86 86 87
38 31 29 32 40 45 51 56 62 64 68 74 79 81 84 71 82 87 87 93 90 89
33 27 27 32 38 43 47 53 56 61 66 74 75 78 78 69 79 90 90 90 93 94
31 27 27 30 35 40 45 50 55 61 65 70 71 76 72 69 81 85 86 88 88 91
30 24 24 28 32 39 43 48 54 58 64 67 70 75 66 71 79 86 100 92 87 87
26 20 21 24 30 35 41 48 53 56 60 66 76 74 64 66 81 94 94 96 90 86
19 16 16 22 29 35 41 45 50 57 61 64 69 78 64 70 78 91 99 96 95 85
Wind_Direction_500mb
238 247 256 268 280 290 295 300 307 309 307 307 305 302 299 295 292 290 286 285 281 279
240 247 259 272 283 290 293 299 303 305 307 305 302 301 299 296 294 289 286 285 281 274
239 248 260 272 280 285 292 299 306 309 304 303 304 303 301 298 295 289 285 281 279 276
239 250 262 270 277 286 295 302 306 302 304 307 306 305 301 298 295 290 289 285 280 278
240 251 261 271 279 290 297 301 303 307 308 308 307 306 303 301 297 293 291 288 282 279
237 249 259 271 283 290 298 305 307 308 309 310 309 309 306 303 299 295 291 287 284 283
235 247 261 271 283 296 304 307 310 311 311 313 312 313 311 305 300 297 292 289 286 284
232 244 257 274 291 302 307 310 313 313 314 316 317 315 311 307 303 300 298 294 289 286
228 239 260 282 295 304 310 315 316 317 319 319 318 316 314 308 304 298 299 299 296 292
224 241 265 284 299 309 317 317 319 319 319 317 319 320 316 309 305 304 300 300 298 294
219 241 268 291 304 315 319 319 321 319 317 319 325 324 319 315 307 306 307 302 297 293
218 242 274 297 311 316 318 322 322 318 321 323 331 336 319 317 315 312 307 306 300 294
217 250 281 302 313 318 321 322 318 323 325 333 339 337 322 323 319 314 310 308 303 297
223 259 292 309 320 323 323 319 321 328 339 338 337 338 328 326 322 317 314 310 309 305
Wind_Speed_850mb
56 48 43 40 39 38 40 41 42 47 57 66 72 75 74 78 81 81 80 82 80 83
55 49 43 40 40 39 42 44 46 53 63 70 75 76 77 81 83 79 79 84 82 80
57 49 42 39 39 41 42 47 52 60 70 74 77 77 77 81 81 78 77 78 80 85
55 47 41 41 40 41 43 48 55 66 73 77 79 78 80 81 82 83 85 81 79 89
52 44 41 40 39 41 44 51 61 69 76 80 81 80 81 83 83 82 84 84 78 87
49 43 40 38 37 41 47 55 65 74 78 80 79 80 80 82 85 83 81 77 82 88
47 40 35 35 38 42 51 59 67 73 77 76 78 80 83 84 83 82 78 80 86 91
42 35 33 33 38 45 53 60 65 70 72 74 78 82 84 83 79 82 90 86 86 87
38 31 29 32 40 45 51 56 62 64 68 74 79 81 84 71 82 87 87 93 90 89
33 27 27 32 38 43 47 53 56 61 66 74 75 78 78 69 79 90 90 90 93 94
31 27 27 30 35 40 45 50 55 61 65 70 71 76 72 69 81 85 86 88 88 91
30 24 24 28 32 39 43 48 54 58 64 67 70 75 66 71 79 86 100 92 87 87
26 20 21 24 30 35 41 48 53 56 60 66 76 74 64 66 81 94 94 96 90 86
19 16 16 22 29 35 41 45 50 57 61 64 69 78 64 70 78 91 99 96 95 85
Wind_Direction_850mb
238 247 256 268 280 290 295 300 307 309 307 307 305 302 299 295 292 290 286 285 281 279
240 247 259 272 283 290 293 299 303 305 307 305 302 301 299 296 294 289 286 285 281 274
239 248 260 272 280 285 292 299 306 309 304 303 304 303 301 298 295 289 285 281 279 276
239 250 262 270 277 286 295 302 306 302 304 307 306 305 301 298 295 290 289 285 280 278
240 251 261 271 279 290 297 301 303 307 308 308 307 306 303 301 297 293 291 288 282 279
237 249 259 271 283 290 298 305 307 308 309 310 309 309 306 303 299 295 291 287 284 283
235 247 261 271 283 296 304 307 310 311 311 313 312 313 311 305 300 297 292 289 286 284
232 244 257 274 291 302 307 310 313 313 314 316 317 315 311 307 303 300 298 294 289 286
228 239 260 282 295 304 310 315 316 317 319 319 318 316 314 308 304 298 299 299 296 292
224 241 265 284 299 309 317 317 319 319 319 317 319 320 316 309 305 304 300 300 298 294
219 241 268 291 304 315 319 319 321 319 317 319 325 324 319 315 307 306 307 302 297 293
218 242 274 297 311 316 318 322 322 318 321 323 331 336 319 317 315 312 307 306 300 294
217 250 281 302 313 318 321 322 318 323 325 333 339 337 322 323 319 314 310 308 303 297
223 259 292 309 320 323 323 319 321 328 339 338 337 338 328 326 322 317 314 310 309 305